Погода в Старом Ибрайкино

Россия / Республика Татарстан     54°51′37″N   51°01′47″E
темп.,
°C
ветер,
м/с
пор.,
м/с
влажн.,
%
обл.,
%
осадки,
мм/ч
давл.,
гПа
погр.,
м
24 сентября, пт
пт2400:00+10юв31166100 0.3 1019311
03:00+8юв71783100 2.4 1018678
06:00+9юв81775100 0.3 1017740
09:00+11юв81561100 0.3 1017793
12:00+10ююв81663100 0.1 1017770
15:00+10юв81673100 0.8 1017723
18:00+9ююв71573100 0.3 1017676
21:00+8вюв31387100 1.6 1016489
25 сентября, сб
сб2500:00+8вюв51187100 3.4 1016405
03:00+8вюв61279100 4.4 1013367
06:00+7в71180100 1.0 1012412
09:00+7в4985100 1.9 1012371
12:00+12юв566232 0.0 1011777
15:00+11вюв4568100 0.0 1011524
18:00+8в3483100 0.0 101177
21:00+8в247394 0.0 101095
26 сентября, вс
вс2600:00+7в227758 0.0 100921
03:00+6св2287100 0.0 100915
06:00+7ссв2289100 0.0 100832
09:00+11с1272100 0.0 1008292
12:00+12сз2262100 0.0 1007650
15:00+12сз2262100 0.0 1008580
18:00+9с228245 0.0 100928
21:00+7с22905 0.0 100816
27 сентября, пн
пн2700:00+7св229380 0.0 100926
03:00+6св3492100 0.0 100975
06:00+7всв41082100 0.0 1010273
09:00+9в6970100 0.0 1012652
12:00+8всв6989100 0.8 1014609
15:00+9всв586179 0.9 1015890
18:00+7св61162100 0.0 1018371
21:00+5св61262100 0.0 1019422
28 сентября, вт
вт2800:00+4св5116574 0.0 1020341
03:00+2св510746 0.0 1022265
06:00+1св4979100 0.0 1024274
09:00+5св4662100 0.0 1025553
12:00+6св4555100 0.0 1025858
15:00+8ссв4448100 0.0 10251178
18:00+5ссв3661100 0.0 1025140
21:00+3св336922 0.0 102555